Miscellaneous Local Product
Issued by NWS Hastings, NE

Home | Current Version | Previous Version | Text Only | Print | Product List | Glossary Off
Versions: 1 2 3 4 5 6 7 8 9 10 11 12 13 14 15 16 17 18 19 20 21 22 23 24 25 26 27 28 29 30 31 32 33 34 35 36 37 38 39 40 41 42 43 44 45 46 47 48 49 50

000
AXUS43 KGID 290202
MISGRI

GID CWA HOURLY WEATHER ROUNDUP
NATIONAL WEATHER SERVICE HASTINGS NE
900 PM CDT FRI AUG 28 2015

NOTE: "FAIR" INDICATES FEW OR NO CLOUDS BELOW 12,000 FEET WITH NO
SIGNIFICANT WEATHER AND/OR OBSTRUCTIONS TO VISIBILITY.

...SOUTH CENTRAL NEBRASKA...

CITY           SKY/WX    TMP DP  RH WIND       PRES   REMARKS
GRAND ISLAND   CLEAR     67  61  81 N5        30.00R
HASTINGS       CLEAR     67  62  84 N3        30.00R
KEARNEY        CLEAR     66  57  72 N6        30.02R
ORD            CLEAR     65  62  90 CALM      30.00R
YORK           MOCLDY    68  64  88 N3        29.97R
AURORA         PTCLDY    67  65  93 N6        29.99R
LEXINGTON      CLEAR     69  63  81 NE5       30.03R
HOLDREGE       CLEAR     64  60  86 NE5       30.02R
HEBRON         CLOUDY    71  62  74 CALM      29.97R

...NEBRASKA PANHANDLE...

CITY           SKY/WX    TMP DP  RH WIND       PRES   REMARKS
CHADRON        CLEAR     72  55  55 SE5       30.05R
ALLIANCE       CLEAR     69  51  52 SE6       30.11R
SCOTTSBLUFF    CLEAR     71  57  61 SE5       30.12R
SIDNEY         CLEAR     71  43  36 NE7       30.16R

...WESTERN AND NORTH CENTRAL NEBRASKA...

CITY           SKY/WX    TMP DP  RH WIND       PRES   REMARKS
VALENTINE      CLEAR     70  61  73 SE6       30.04R
AINSWORTH      CLEAR     67  64  91 CALM      30.04S
ONEILL         CLEAR     68  65  91 E5        30.02R
BROKEN BOW     CLEAR     66  62  87 N5        30.03R
IMPERIAL       CLEAR     73  59  61 NE3       30.08R
NORTH PLATTE   CLEAR     66  60  81 NE6       30.05R
MCCOOK         CLEAR     72  62  71 MISG      30.03R

...EASTERN NEBRASKA...

CITY           SKY/WX    TMP DP  RH WIND       PRES   REMARKS
NORFOLK        CLEAR     66  62  87 N10       29.98R
SO SIOUX CITY  CLOUDY    64  58  80 N14       29.97R
TEKAMAH        CLOUDY    64  62  93 N13       29.94R
COLUMBUS       PTCLDY   N/A N/A N/A N3        29.97R
ALBION         CLEAR     67  62  83 N5        29.99R
OMAHA EPPLEY   CLOUDY    66  64  93 NW14      29.92R
OFFUTT AFB     MOCLDY    68  64  87 NW9       29.91R
MILLARD        DRIZZLE   67  65  91 NW8       29.91R
LINCOLN        MOCLDY    68  61  78 N14       29.95R
NEBRASKA CITY  CLEAR     67  65  93 NW3       29.92R
BEATRICE       CLOUDY    69  65  87 NW3       29.94R
FALLS CITY     PTCLDY    71  69  93 N3        29.90R

...NORTHERN KANSAS...

CITY           SKY/WX    TMP DP  RH WIND       PRES   REMARKS
GOODLAND       CLEAR     72  49  44 NE5       30.09R
HILL CITY      CLEAR     75  62  64 NE9       30.02R
NORTON         CLEAR     70  59  68 NE3       30.02R
PHILLIPSBURG   CLEAR     77  63  61 N8        30.00R
SMITH CENTER   CLEAR     70  61  73 N9        30.00R
HAYS           CLEAR     79  59  50 NE13      29.99R
RUSSELL        CLEAR     76  64  66 N10       29.97R
CONCORDIA      PTCLDY    71  63  75 N8        29.97R
SALINA         PTCLDY    78  67  68 N9        29.95R
TOPEKA         PTCLDY    74  68  81 S9        29.89R



USA.gov is the U.S. government's official web portal to all federal, state and local government web resources and services.